This is the latest recevied weather packets stored in our database for station/object N1UNH. If no packets are shown the sender has not sent any weather packets the latest 1 day(s).
| Time | Temp. | Humidity | Pressure | Rain* | Wind** | Luminosity | Snow |
|---|---|---|---|---|---|---|---|
| 1777983586 | 15° C | 60% | 1014.3 hPa | 0 mm | 0.45 m/s, 204° | 65 W/m² | - |
| 1777983283 | 13.89° C | 62% | 1014.3 hPa | 0 mm | 0.89 m/s, 204° | 53 W/m² | - |
| 1777982979 | 13.33° C | 66% | 1014.2 hPa | 0 mm | 0 m/s | 47 W/m² | - |
| 1777982675 | 12.78° C | 71% | 1014.1 hPa | 0 mm | 0.45 m/s, 205° | 44 W/m² | - |
| 1777982375 | 12.22° C | 72% | 1014 hPa | 0 mm | 0.45 m/s, 205° | 45 W/m² | - |
| 1777982071 | 11.67° C | 74% | 1014.1 hPa | 0 mm | 0 m/s | 40 W/m² | - |
| 1777981769 | 11.11° C | 77% | 1013.9 hPa | 0 mm | 0 m/s | 44 W/m² | - |
| 1777981465 | 10.56° C | 77% | 1014 hPa | 0 mm | 0 m/s | 47 W/m² | - |
| 1777981161 | 10.56° C | 80% | 1014 hPa | 0 mm | 0 m/s | 55 W/m² | - |
| 1777980858 | 10° C | 81% | 1014 hPa | 0 mm | 0 m/s | 63 W/m² | - |
| 1777980554 | 10° C | 82% | 1014.1 hPa | 0 mm | 0 m/s | 39 W/m² | - |
| 1777980252 | 9.44° C | 83% | 1014 hPa | 0 mm | 0 m/s | 40 W/m² | - |
| 1777979948 | 9.44° C | 83% | 1014 hPa | 0 mm | 0 m/s | 39 W/m² | - |
| 1777979643 | 8.89° C | 83% | 1013.8 hPa | 0 mm | 0 m/s | 49 W/m² | - |
| 1777979339 | 8.89° C | 83% | 1013.8 hPa | 0 mm | 0 m/s | 38 W/m² | - |
| 1777979037 | 8.89° C | 82% | 1013.8 hPa | 0 mm | 0.45 m/s, 181° | 32 W/m² | - |
| 1777978733 | 8.89° C | 82% | 1014 hPa | 0 mm | 0 m/s | 29 W/m² | - |
| 1777978429 | 8.33° C | 81% | 1013.8 hPa | 0 mm | 0 m/s | 29 W/m² | - |
| 1777978126 | 8.33° C | 82% | 1013.6 hPa | 0 mm | 0 m/s | 33 W/m² | - |
| 1777977823 | 8.33° C | 82% | 1013.8 hPa | 0 mm | 0 m/s | 27 W/m² | - |
| 1777977519 | 7.78° C | 84% | 1013.6 hPa | 0 mm | 0 m/s | 26 W/m² | - |
| 1777977217 | 7.78° C | 84% | 1013.5 hPa | 0 mm | 0 m/s | 24 W/m² | - |
| 1777976914 | 7.78° C | 83% | 1013.5 hPa | 0 mm | 0 m/s | 22 W/m² | - |
| 1777976611 | 7.78° C | 84% | 1013.9 hPa | 0 mm | 0 m/s | 20 W/m² | - |
| 1777976307 | 7.78° C | 84% | 1013.8 hPa | 0 mm | 0 m/s | 18 W/m² | - |
* Rain latest hour (hover to see other rain measurements)
** Current wind speed in m/s (hover to see current wind gust speed)